Weather History for Homestead AFB, FL

Change the Weather History Date:

Friday, January 10, 2014

  Actual Average Record
Temperature  
Mean Temperature 75 °F -  
Max Temperature 80 °F 75 °F 85 °F (1971)
Min Temperature 70 °F 55 °F 31 °F (1956)
Cooling Degree Days 10    
Growing Degree Days 25 (Base 50)    
Moisture  
Dew Point 72 °F    
Average Humidity 88    
Maximum Humidity 100    
Minimum Humidity 74    
Precipitation  
Precipitation 0.00 in - - ()
Sea Level Pressure  
Sea Level Pressure 30.12 in    
Wind  
Wind Speed 8 mph (ESE)    
Max Wind Speed 16 mph    
Max Gust Speed 23 mph    
Visibility 10 miles    
Events Rain    
Averages and records for this station are not official NWS values.
T = Trace of Precipitation, MM = Missing Value Source: NWS Daily Summary

Daily Weather History Graph

Daily Weather History Graph

Search for Another Location

Airport:

Trip Planner

Search our weather history database for the weather conditions in past years. The results will help you decide how hot, cold, wet, or windy it might be!

Date:

Astronomy

Jan. 10, 2014 Rise Set
Actual Time 7:09 AM EST 5:49 PM EST
Civil Twilight 6:44 AM EST 6:14 PM EST
Nautical Twilight 6:16 AM EST 6:42 PM EST
Astronomical Twilight 5:48 AM EST 7:10 PM EST
Moon 1:44 PM EST (1/10) 2:24 AM EST (1/10)
Length of Visible Light 11h 29m
Length of Day
10h 39m
Waxing Gibbous, 75% of the Moon is Illuminated
Jan 10
Waxing Gibbous
Jan 15
Full
Jan 24
Last Quarter
Jan 30
New
Feb 6
First Quarter

Hourly Weather History & Observations

Time (EST) Temp. Heat Index Dew Point Humidity Pressure Visibility Wind Dir Wind Speed Gust Speed Precip Events Conditions
12:58 AM 73.6 °F - 72.7 °F 97% 30.16 in 10.0 mi ESE 8.1 mph - N/A   Clear
1:58 AM 73.4 °F - 71.6 °F 94% 30.15 in 10.0 mi ESE 5.8 mph - N/A   Clear
2:58 AM 73.2 °F - 69.8 °F 89% 30.14 in 10.0 mi East 4.6 mph - N/A   Clear
3:58 AM 72.9 °F - 69.6 °F 90% 30.13 in 10.0 mi ESE 6.9 mph - N/A   Clear
4:58 AM 72.5 °F - 68.5 °F 87% 30.13 in 10.0 mi ESE 5.8 mph - N/A   Clear
5:58 AM 71.6 °F - 69.1 °F 92% 30.14 in 10.0 mi East 3.5 mph - N/A   Clear
6:58 AM 70.3 °F - 70.3 °F 100% 30.15 in 10.0 mi East 5.8 mph - N/A   Clear
7:58 AM 72.0 °F - 72.0 °F 100% 30.16 in 10.0 mi East 5.8 mph - N/A   Clear
8:58 AM 75.9 °F - 73.6 °F 92% 30.17 in 10.0 mi ESE 8.1 mph - N/A   Clear
9:58 AM 77.0 °F - 72.3 °F 85% 30.18 in 10.0 mi ESE 12.7 mph - N/A   Clear
10:35 AM 77.0 °F - 73.4 °F 89% 30.16 in 10.0 mi ESE 10.4 mph - N/A Rain Light Rain
10:39 AM 77.0 °F - 73.4 °F 89% 30.16 in 10.0 mi ESE 8.1 mph - N/A   Clear
10:58 AM 78.4 °F - 72.7 °F 82% 30.16 in 10.0 mi ESE 9.2 mph - 0.00 in   Partly Cloudy
11:33 AM 80.6 °F 85.4 °F 73.4 °F 79% 30.13 in 10.0 mi ESE 12.7 mph 21.9 mph N/A   Mostly Cloudy
11:53 AM 80.6 °F 85.4 °F 73.4 °F 79% 30.12 in 10.0 mi SE 16.1 mph 23.0 mph N/A   Scattered Clouds
11:58 AM 80.4 °F 84.8 °F 72.9 °F 78% 30.13 in 10.0 mi SE 16.1 mph 23.0 mph N/A   Scattered Clouds
12:58 PM 79.5 °F - 72.1 °F 78% 30.11 in 10.0 mi SE 10.4 mph - N/A   Partly Cloudy
1:04 PM 78.8 °F - 71.6 °F 78% 30.09 in 10.0 mi ESE 12.7 mph - N/A   Light Drizzle
1:12 PM 80.6 °F 84.6 °F 71.6 °F 74% 30.09 in 10.0 mi SE 13.8 mph 19.6 mph N/A   Partly Cloudy
1:58 PM 80.1 °F 84.1 °F 72.5 °F 78% 30.08 in 10.0 mi SE 13.8 mph 19.6 mph 0.00 in   Partly Cloudy
2:58 PM 78.8 °F - 72.3 °F 80% 30.08 in 10.0 mi ESE 10.4 mph - N/A   Clear
3:58 PM 80.6 °F 84.6 °F 71.6 °F 74% 30.08 in 10.0 mi SE 10.4 mph - N/A   Mostly Cloudy
4:05 PM 80.6 °F 84.6 °F 71.6 °F 74% 30.07 in 10.0 mi East 12.7 mph - N/A   Mostly Cloudy
4:34 PM 78.8 °F - 73.4 °F 83% 30.08 in 10.0 mi East 9.2 mph - N/A   Mostly Cloudy
4:49 PM 77.0 °F - 71.6 °F 83% 30.08 in 10.0 mi East 5.8 mph - N/A   Scattered Clouds
4:58 PM 77.5 °F - 72.5 °F 84% 30.09 in 10.0 mi East 6.9 mph - N/A   Scattered Clouds
5:08 PM 77.0 °F - 73.4 °F 89% 30.08 in 10.0 mi East 6.9 mph - N/A   Scattered Clouds
5:58 PM 75.2 °F - 72.0 °F 90% 30.09 in 10.0 mi East 4.6 mph - N/A   Partly Cloudy
6:58 PM 73.2 °F - 72.0 °F 96% 30.10 in 10.0 mi East 3.5 mph - N/A   Clear
7:58 PM 72.7 °F - 72.7 °F 100% 30.11 in 10.0 mi East 3.5 mph - N/A   Clear
8:58 PM 71.8 °F - 71.8 °F 100% 30.11 in 10.0 mi East 4.6 mph - N/A   Clear
9:58 PM 72.5 °F - 72.5 °F 100% 30.12 in 10.0 mi East 4.6 mph - N/A   Clear
10:58 PM 72.5 °F - 72.5 °F 100% 30.12 in 10.0 mi East 4.6 mph - N/A   Partly Cloudy
11:58 PM 73.0 °F - 73.0 °F 100% 30.11 in 10.0 mi East 3.5 mph - N/A   Partly Cloudy